TimeEDT,TemperatureF,Dew PointF,Humidity,Sea Level PressureIn,VisibilityMPH,Wind Direction,Wind SpeedMPH,Gust SpeedMPH,PrecipitationIn,Events,Conditions,WindDirDegrees,DateUTC
12:53 AM,55.0,48.0,77,30.02,10.0,Calm,Calm,-,N/A,,Clear,0,2013-05-08 04:53:00
1:53 AM,54.0,46.9,77,30.00,10.0,NNW,4.6,-,N/A,,Mostly Cloudy,340,2013-05-08 05:53:00
2:53 AM,57.0,46.9,69,29.98,10.0,Calm,Calm,-,N/A,,Mostly Cloudy,0,2013-05-08 06:53:00
3:53 AM,54.0,45.0,72,29.99,10.0,Calm,Calm,-,N/A,,Clear,0,2013-05-08 07:53:00
4:53 AM,57.0,44.1,62,29.98,10.0,NNW,3.5,-,N/A,,Overcast,340,2013-05-08 08:53:00
5:53 AM,55.9,45.0,67,29.97,10.0,Calm,Calm,-,N/A,,Overcast,0,2013-05-08 09:53:00
6:53 AM,57.9,46.0,65,29.98,10.0,Calm,Calm,-,N/A,,Overcast,0,2013-05-08 10:53:00
7:53 AM,62.1,48.0,60,30.00,10.0,North,3.5,-,N/A,,Overcast,10,2013-05-08 11:53:00
8:53 AM,68.0,46.9,47,30.01,10.0,NNE,4.6,-,N/A,,Scattered Clouds,20,2013-05-08 12:53:00
9:53 AM,71.1,46.9,42,30.01,10.0,NE,4.6,-,N/A,,Clear,40,2013-05-08 13:53:00
10:53 AM,72.0,46.9,41,30.01,10.0,ENE,5.8,-,N/A,,Scattered Clouds,60,2013-05-08 14:53:00
11:53 AM,77.0,50.0,39,30.00,10.0,NNE,9.2,-,N/A,,Mostly Cloudy,20,2013-05-08 15:53:00
12:53 PM,79.0,48.9,35,29.98,10.0,North,5.8,-,N/A,,Scattered Clouds,360,2013-05-08 16:53:00
1:53 PM,80.1,50.0,35,29.97,10.0,Calm,Calm,-,N/A,,Clear,0,2013-05-08 17:53:00
2:53 PM,82.0,48.9,31,29.95,10.0,NNE,5.8,-,N/A,,Partly Cloudy,30,2013-05-08 18:53:00
3:53 PM,75.9,51.1,42,29.95,10.0,ESE,6.9,-,N/A,,Scattered Clouds,120,2013-05-08 19:53:00
4:53 PM,73.9,53.1,48,29.95,10.0,West,11.5,19.6,0.00,Rain,Light Rain,270,2013-05-08 20:53:00
5:53 PM,71.1,53.1,53,29.94,10.0,South,8.1,-,0.00,,Overcast,190,2013-05-08 21:53:00
6:53 PM,71.1,53.1,53,29.95,10.0,ESE,6.9,-,N/A,,Partly Cloudy,120,2013-05-08 22:53:00
7:53 PM,69.1,55.0,61,29.95,10.0,SE,3.5,-,N/A,,Mostly Cloudy,140,2013-05-08 23:53:00
8:53 PM,66.9,54.0,63,29.95,10.0,Calm,Calm,-,N/A,,Clear,0,2013-05-09 00:53:00
9:53 PM,61.0,54.0,78,29.96,10.0,Calm,Calm,-,N/A,,Clear,0,2013-05-09 01:53:00
10:53 PM,59.0,53.1,81,29.97,10.0,Calm,Calm,-,N/A,,Clear,0,2013-05-09 02:53:00
11:53 PM,57.9,52.0,81,29.97,10.0,South,4.6,-,N/A,,Clear,170,2013-05-09 03:53:00